Time,TemperatureF,DewpointF,PressureIn,WindDirection,WindDirectionDegrees,WindSpeedMPH,WindSpeedGustMPH,Humidity,HourlyPrecipIn,Conditions,Clouds,dailyrainin,SoftwareType,DateUTC
2013-09-25 00:14:00,52.0,46.0,29.96,WNW,287,0.0,0.0,79,0.00,,,0.00,,2013-09-25 04:14:00,
2013-09-25 00:24:00,51.0,45.0,29.96,WNW,287,0.0,0.0,80,0.00,,,0.00,,2013-09-25 04:24:00,
2013-09-25 00:54:00,50.0,45.0,29.96,WNW,287,0.0,0.0,82,0.00,,,0.00,,2013-09-25 04:54:00,
2013-09-25 01:13:00,50.0,45.0,29.96,WNW,287,0.0,0.0,83,0.00,,,0.00,,2013-09-25 05:13:00,
2013-09-25 01:23:00,50.0,46.0,29.96,WNW,287,0.0,0.0,85,0.00,,,0.00,,2013-09-25 05:23:00,
2013-09-25 01:53:00,49.0,45.0,29.97,WNW,287,0.0,0.0,87,0.00,,,0.00,,2013-09-25 05:53:00,
2013-09-25 02:13:00,49.0,45.0,29.97,WNW,287,0.0,0.0,87,0.00,,,0.00,,2013-09-25 06:13:00,
2013-09-25 02:23:00,49.0,45.0,29.97,WNW,287,0.0,0.0,87,0.00,,,0.00,,2013-09-25 06:23:00,
2013-09-25 02:42:00,49.0,45.0,29.97,WNW,287,0.0,0.0,87,0.00,,,0.00,,2013-09-25 06:42:00,
2013-09-25 02:52:00,48.0,44.0,29.97,WNW,287,0.0,0.0,87,0.00,,,0.00,,2013-09-25 06:52:00,
2013-09-25 03:12:00,48.0,44.0,29.97,WNW,287,0.0,0.0,87,0.00,,,0.00,,2013-09-25 07:12:00,
2013-09-25 03:22:00,48.0,45.0,29.96,WNW,287,0.0,0.0,88,0.00,,,0.00,,2013-09-25 07:22:00,
2013-09-25 03:42:00,47.0,44.0,29.96,WNW,287,0.0,0.0,88,0.00,,,0.00,,2013-09-25 07:42:00,
2013-09-25 03:53:00,47.0,44.0,29.96,WNW,287,0.0,0.0,88,0.00,,,0.00,,2013-09-25 07:53:00,
2013-09-25 04:12:00,47.0,44.0,29.96,WNW,287,0.0,0.0,88,0.00,,,0.00,,2013-09-25 08:12:00,
2013-09-25 04:22:00,47.0,44.0,29.96,WNW,287,0.0,0.0,89,0.00,,,0.00,,2013-09-25 08:22:00,
2013-09-25 04:42:00,47.0,44.0,29.96,WNW,287,0.0,0.0,89,0.00,,,0.00,,2013-09-25 08:42:00,
2013-09-25 04:53:00,46.0,43.0,29.96,WNW,287,0.0,0.0,90,0.00,,,0.00,,2013-09-25 08:53:00,
2013-09-25 05:11:00,46.0,43.0,29.96,WNW,287,0.0,0.0,90,0.00,,,0.00,,2013-09-25 09:11:00,
2013-09-25 05:22:00,46.0,44.0,29.96,WNW,287,0.0,0.0,91,0.00,,,0.00,,2013-09-25 09:22:00,
2013-09-25 05:43:00,46.0,44.0,29.96,WNW,287,0.0,0.0,91,0.00,,,0.00,,2013-09-25 09:43:00,
2013-09-25 05:54:00,45.0,43.0,29.96,WNW,287,0.0,0.0,92,0.00,,,0.00,,2013-09-25 09:54:00,
2013-09-25 06:12:00,45.0,43.0,29.96,WNW,287,0.0,0.0,93,0.00,,,0.00,,2013-09-25 10:12:00,
2013-09-25 06:23:00,45.0,43.0,29.97,WNW,287,0.0,0.0,93,0.00,,,0.00,,2013-09-25 10:23:00,
2013-09-25 06:42:00,45.0,43.0,29.97,WNW,287,0.0,0.0,93,0.00,,,0.00,,2013-09-25 10:42:00,
2013-09-25 06:53:00,45.0,43.0,29.97,WNW,287,0.0,0.0,93,0.00,,,0.00,,2013-09-25 10:53:00,
2013-09-25 07:12:00,45.0,43.0,29.97,WNW,287,0.0,0.0,93,0.00,,,0.00,,2013-09-25 11:12:00,
2013-09-25 07:22:00,45.0,43.0,29.97,WNW,287,0.0,0.0,93,0.00,,,0.00,,2013-09-25 11:22:00,
2013-09-25 07:43:00,45.0,43.0,29.98,WNW,287,0.0,0.0,93,0.00,,,0.00,,2013-09-25 11:43:00,
2013-09-25 07:52:00,45.0,43.0,29.98,WNW,287,0.0,0.0,93,0.00,,,0.00,,2013-09-25 11:52:00,
2013-09-25 08:12:00,46.0,44.0,29.98,WNW,287,0.0,0.0,92,0.00,,,0.00,,2013-09-25 12:12:00,
2013-09-25 08:22:00,48.0,45.0,29.98,WNW,287,0.0,0.0,88,0.00,,,0.00,,2013-09-25 12:22:00,
2013-09-25 08:52:00,51.0,46.0,29.97,WNW,287,0.0,0.0,82,0.00,,,0.00,,2013-09-25 12:52:00,
2013-09-25 09:11:00,52.0,46.0,29.97,WNW,287,0.0,0.0,80,0.00,,,0.00,,2013-09-25 13:11:00,
2013-09-25 09:22:00,54.0,46.0,29.97,WNW,287,0.0,0.0,75,0.00,,,0.00,,2013-09-25 13:22:00,
2013-09-25 09:52:00,58.0,47.0,29.97,WNW,287,0.0,0.0,68,0.00,,,0.00,,2013-09-25 13:52:00,
2013-09-25 10:11:00,58.0,47.0,29.97,WNW,287,0.0,0.0,67,0.00,,,0.00,,2013-09-25 14:11:00,
2013-09-25 10:22:00,61.0,48.0,29.97,WNW,287,0.0,0.0,63,0.00,,,0.00,,2013-09-25 14:22:00,
2013-09-25 10:52:00,64.0,50.0,29.97,WNW,287,0.0,0.0,61,0.00,,,0.00,,2013-09-25 14:52:00,
2013-09-25 11:11:00,64.0,47.0,29.97,WNW,287,0.0,0.0,55,0.00,,,0.00,,2013-09-25 15:11:00,
2013-09-25 11:22:00,65.0,46.0,29.96,WNW,287,0.0,0.0,50,0.00,,,0.00,,2013-09-25 15:22:00,
2013-09-25 11:44:00,66.0,46.0,29.96,WNW,287,0.0,0.0,49,0.00,,,0.00,,2013-09-25 15:44:00,
2013-09-25 11:54:00,67.0,46.0,29.96,WNW,287,0.0,0.0,47,0.00,,,0.00,,2013-09-25 15:54:00,
2013-09-25 12:13:00,68.0,45.0,29.96,WNW,287,0.0,0.0,44,0.00,,,0.00,,2013-09-25 16:13:00,
2013-09-25 12:23:00,69.0,46.0,29.95,WNW,287,0.0,0.0,44,0.00,,,0.00,,2013-09-25 16:23:00,
2013-09-25 12:43:00,70.0,48.0,29.95,WNW,287,0.0,0.0,45,0.00,,,0.00,,2013-09-25 16:43:00,
2013-09-25 12:53:00,70.0,48.0,29.95,WNW,287,0.0,0.0,45,0.00,,,0.00,,2013-09-25 16:53:00,
2013-09-25 13:13:00,70.0,48.0,29.94,WNW,287,0.0,0.0,46,0.00,,,0.00,,2013-09-25 17:13:00,
2013-09-25 13:23:00,71.0,49.0,29.94,WNW,287,0.0,0.0,45,0.00,,,0.00,,2013-09-25 17:23:00,
2013-09-25 13:43:00,70.0,48.0,29.94,WNW,287,0.0,0.0,45,0.00,,,0.00,,2013-09-25 17:43:00,
2013-09-25 13:52:00,71.0,47.0,29.93,WNW,287,0.0,0.0,43,0.00,,,0.00,,2013-09-25 17:52:00,
2013-09-25 14:13:00,71.0,50.0,29.92,WNW,287,0.0,0.0,47,0.00,,,0.00,,2013-09-25 18:13:00,
2013-09-25 14:22:00,73.0,50.0,29.92,WNW,287,0.0,0.0,45,0.00,,,0.00,,2013-09-25 18:22:00,
2013-09-25 14:42:00,72.0,48.0,29.91,WNW,287,0.0,0.0,43,0.00,,,0.00,,2013-09-25 18:42:00,
2013-09-25 14:52:00,73.0,49.0,29.91,WNW,287,0.0,0.0,43,0.00,,,0.00,,2013-09-25 18:52:00,
2013-09-25 15:11:00,73.0,50.0,29.91,WNW,287,0.0,0.0,44,0.00,,,0.00,,2013-09-25 19:11:00,
2013-09-25 15:22:00,74.0,49.0,29.91,WNW,287,0.0,0.0,41,0.00,,,0.00,,2013-09-25 19:22:00,
2013-09-25 15:42:00,73.0,49.0,29.91,WNW,287,0.0,0.0,43,0.00,,,0.00,,2013-09-25 19:42:00,
2013-09-25 15:53:00,72.0,48.0,29.90,WNW,287,0.0,0.0,42,0.00,,,0.00,,2013-09-25 19:53:00,
2013-09-25 16:12:00,73.0,49.0,29.90,WNW,287,0.0,0.0,42,0.00,,,0.00,,2013-09-25 20:12:00,
2013-09-25 16:22:00,72.0,49.0,29.90,WNW,287,0.0,0.0,44,0.00,,,0.00,,2013-09-25 20:22:00,
2013-09-25 16:43:00,72.0,49.0,29.89,WNW,287,0.0,0.0,45,0.00,,,0.00,,2013-09-25 20:43:00,
2013-09-25 16:52:00,71.0,49.0,29.89,WNW,287,0.0,0.0,46,0.00,,,0.00,,2013-09-25 20:52:00,
2013-09-25 17:12:00,70.0,49.0,29.89,WNW,287,0.0,0.0,47,0.00,,,0.00,,2013-09-25 21:12:00,
2013-09-25 17:22:00,68.0,49.0,29.90,WNW,287,0.0,0.0,50,0.00,,,0.00,,2013-09-25 21:22:00,
2013-09-25 17:55:00,70.0,49.0,29.90,WNW,287,0.0,0.0,48,0.00,,,0.00,,2013-09-25 21:55:00,
2013-09-25 18:14:00,71.0,50.0,29.90,WNW,287,0.0,0.0,48,0.00,,,0.00,,2013-09-25 22:14:00,
2013-09-25 18:23:00,71.0,50.0,29.90,WNW,287,0.0,0.0,48,0.00,,,0.00,,2013-09-25 22:23:00,
2013-09-25 18:42:00,70.0,51.0,29.90,WNW,287,0.0,0.0,51,0.00,,,0.00,,2013-09-25 22:42:00,
2013-09-25 18:53:00,67.0,51.0,29.90,WNW,287,0.0,0.0,56,0.00,,,0.00,,2013-09-25 22:53:00,
2013-09-25 19:12:00,66.0,52.0,29.91,WNW,287,0.0,0.0,60,0.00,,,0.00,,2013-09-25 23:12:00,
2013-09-25 19:23:00,63.0,52.0,29.91,WNW,287,0.0,0.0,67,0.00,,,0.00,,2013-09-25 23:23:00,
2013-09-25 19:42:00,62.0,52.0,29.91,WNW,287,0.0,0.0,70,0.00,,,0.00,,2013-09-25 23:42:00,
2013-09-25 19:53:00,60.0,52.0,29.91,WNW,287,0.0,0.0,75,0.00,,,0.00,,2013-09-25 23:53:00,
2013-09-25 20:12:00,59.0,52.0,29.91,WNW,287,0.0,0.0,77,0.00,,,0.00,,2013-09-26 00:12:00,
2013-09-25 20:22:00,58.0,53.0,29.92,WNW,287,0.0,0.0,82,0.00,,,0.00,,2013-09-26 00:22:00,
2013-09-25 20:42:00,57.0,52.0,29.92,WNW,287,0.0,0.0,83,0.00,,,0.00,,2013-09-26 00:42:00,
2013-09-25 20:52:00,57.0,53.0,29.93,WNW,287,0.0,0.0,85,0.00,,,0.00,,2013-09-26 00:52:00,
2013-09-25 21:12:00,56.0,52.0,29.93,WNW,287,0.0,0.0,86,0.00,,,0.00,,2013-09-26 01:12:00,
2013-09-25 21:23:00,55.0,52.0,29.93,WNW,287,0.0,0.0,88,0.00,,,0.00,,2013-09-26 01:23:00,
2013-09-25 21:42:00,55.0,52.0,29.93,WNW,287,0.0,0.0,88,0.00,,,0.00,,2013-09-26 01:42:00,
2013-09-25 21:52:00,55.0,52.0,29.94,WNW,287,0.0,0.0,89,0.00,,,0.00,,2013-09-26 01:52:00,
2013-09-25 22:13:00,55.0,52.0,29.94,WNW,287,0.0,0.0,89,0.00,,,0.00,,2013-09-26 02:13:00,
2013-09-25 22:22:00,54.0,51.0,29.95,WNW,287,0.0,0.0,90,0.00,,,0.00,,2013-09-26 02:22:00,
2013-09-25 23:12:00,53.0,51.0,29.95,WNW,287,0.0,0.0,92,0.00,,,0.00,,2013-09-26 03:12:00,
2013-09-25 23:22:00,53.0,51.0,29.95,WNW,287,0.0,0.0,93,0.00,,,0.00,,2013-09-26 03:22:00,
2013-09-25 23:44:00,53.0,51.0,29.96,WNW,287,0.0,0.0,92,0.00,,,0.00,,2013-09-26 03:44:00,
2013-09-25 23:55:00,52.0,50.0,29.96,WNW,287,0.0,0.0,93,0.00,,,0.00,,2013-09-26 03:55:00,